| time (UTC) | temp F | wind direction | speed MPH | gust MPH | rain 1hr in | rain 24hr in | rain mn in | humidity % | barometer mb |
| 20260505173053 | 81 | 153 | 0.0 | 5.0 | 0.00 | 0.00 | 0.00 | 57 | 1016.0 |
| 20260505172046 | 80 | 119 | 0.0 | 5.0 | 0.00 | 0.00 | 0.00 | 61 | 1016.2 |
| 20260505171038 | 80 | 101 | 1.0 | 7.0 | 0.00 | 0.00 | 0.00 | 60 | 1016.3 |
| 20260505170123 | 79 | 109 | 0.0 | 7.0 | 0.00 | 0.00 | 0.00 | 62 | 1016.5 |
| 20260505165107 | 79 | 136 | 1.0 | 4.0 | 0.00 | 0.00 | 0.00 | 62 | 1016.5 |
| 20260505164040 | 79 | 139 | 2.0 | 7.0 | 0.00 | 0.00 | 0.00 | 62 | 1016.5 |
| 20260505163053 | 79 | 186 | 1.0 | 8.0 | 0.00 | 0.00 | 0.00 | 63 | 1016.6 |
| 20260505162109 | 78 | 146 | 0.0 | 7.0 | 0.00 | 0.00 | 0.00 | 64 | 1016.6 |
| 20260505161057 | 77 | 167 | 1.0 | 5.0 | 0.00 | 0.00 | 0.00 | 66 | 1016.8 |
| 20260505160121 | 77 | 101 | 3.0 | 8.0 | 0.00 | 0.00 | 0.00 | 66 | 1016.8 |
| 20260505153052 | 75 | 177 | 1.0 | 6.0 | 0.00 | 0.00 | 0.00 | 68 | 1017.1 |
| 20260505152046 | 74 | 144 | 0.0 | 2.0 | 0.00 | 0.00 | 0.00 | 74 | 1017.1 |
| 20260505151041 | 73 | 144 | 1.0 | 5.0 | 0.00 | 0.00 | 0.00 | 73 | 1017.1 |
| 20260505150124 | 73 | 141 | 1.0 | 4.0 | 0.00 | 0.00 | 0.00 | 76 | 1017.0 |
| 20260505140126 | 65 | 161 | 0.0 | 0.0 | 0.00 | 0.00 | 0.00 | 85 | 1016.8 |
| 20260505130113 | 59 | 166 | 0.0 | 1.0 | 0.00 | 0.00 | 0.00 | 96 | 1016.5 |
| 20260505124109 | 56 | 166 | 0.0 | 0.0 | 0.00 | 0.00 | 0.00 | 98 | 1016.5 |
| 20260505123039 | 56 | 166 | 0.0 | 0.0 | 0.00 | 0.00 | 0.00 | 98 | 1016.3 |
| 20260505122052 | 55 | 166 | 0.0 | 0.0 | 0.00 | 0.00 | 0.00 | 98 | 1016.3 |
| 20260505121045 | 55 | 166 | 0.0 | 0.0 | 0.00 | 0.00 | 0.00 | 98 | 1016.4 |
| 20260505035056 | 60 | 170 | 0.0 | 0.0 | 0.00 | 0.00 | 0.00 | 84 | 1015.9 |
| 20260505034111 | 61 | 170 | 0.0 | 0.0 | 0.00 | 0.00 | 0.00 | 83 | 1015.9 |
| 20260505033044 | 62 | 170 | 0.0 | 0.0 | 0.00 | 0.00 | 0.00 | 82 | 1015.8 |
| 20260505032042 | 62 | 170 | 0.0 | 0.0 | 0.00 | 0.00 | 0.00 | 81 | 1016.0 |
| 20260505031054 | 63 | 170 | 0.0 | 0.0 | 0.00 | 0.00 | 0.00 | 81 | 1016.1 |
| 20260505030117 | 63 | 170 | 0.0 | 0.0 | 0.00 | 0.00 | 0.00 | 79 | 1015.9 |
| 20260505025040 | 63 | 170 | 0.0 | 0.0 | 0.00 | 0.00 | 0.00 | 79 | 1015.9 |
| 20260505024113 | 64 | 170 | 0.0 | 0.0 | 0.00 | 0.00 | 0.00 | 77 | 1015.9 |
| 20260505023106 | 65 | 170 | 0.0 | 0.0 | 0.00 | 0.00 | 0.00 | 76 | 1015.9 |
| 20260505022038 | 66 | 170 | 0.0 | 0.0 | 0.00 | 0.00 | 0.00 | 77 | 1015.9 |
| 20260505021052 | 66 | 170 | 0.0 | 0.0 | 0.00 | 0.00 | 0.00 | 76 | 1015.8 |
| 20260505020118 | 67 | 170 | 0.0 | 0.0 | 0.00 | 0.00 | 0.00 | 76 | 1015.7 |
| 20260505015041 | 67 | 170 | 0.0 | 0.0 | 0.00 | 0.00 | 0.00 | 74 | 1015.6 |
| 20260505014038 | 68 | 170 | 0.0 | 0.0 | 0.00 | 0.00 | 0.00 | 71 | 1015.4 |
| 20260505013051 | 68 | 170 | 0.0 | 0.0 | 0.00 | 0.00 | 0.00 | 69 | 1015.3 |
| 20260505012044 | 69 | 170 | 0.0 | 0.0 | 0.00 | 0.00 | 0.00 | 67 | 1015.3 |
| 20260505011037 | 70 | 170 | 0.0 | 0.0 | 0.00 | 0.00 | 0.00 | 66 | 1015.2 |
| 20260505010122 | 70 | 170 | 0.0 | 0.0 | 0.00 | 0.00 | 0.00 | 65 | 1015.0 |
| 20260505005046 | 72 | 170 | 0.0 | 0.0 | 0.00 | 0.00 | 0.00 | 59 | 1014.9 |
| 20260505004038 | 73 | 170 | 0.0 | 0.0 | 0.00 | 0.00 | 0.00 | 57 | 1014.8 |
| 20260505003053 | 73 | 170 | 0.0 | 0.0 | 0.00 | 0.00 | 0.00 | 55 | 1015.0 |
| 20260505002047 | 74 | 170 | 0.0 | 0.0 | 0.00 | 0.00 | 0.00 | 54 | 1015.0 |
| 20260505001043 | 75 | 170 | 0.0 | 2.0 | 0.00 | 0.00 | 0.00 | 53 | 1014.8 |
| 20260505000127 | 76 | 170 | 0.0 | 2.0 | 0.00 | 0.00 | 0.00 | 52 | 1014.6 |
| 20260504235111 | 76 | 163 | 0.0 | 5.0 | 0.00 | 0.00 | 0.00 | 51 | 1014.6 |
| 20260504234042 | 77 | 149 | 0.0 | 6.0 | 0.00 | 0.00 | 0.00 | 51 | 1014.7 |
| 20260504233056 | 77 | 178 | 0.0 | 5.0 | 0.00 | 0.00 | 0.00 | 51 | 1014.6 |
| 20260504232047 | 78 | 157 | 1.0 | 6.0 | 0.00 | 0.00 | 0.00 | 49 | 1014.7 |
| 20260504231041 | 78 | 160 | 1.0 | 4.0 | 0.00 | 0.00 | 0.00 | 50 | 1014.6 |
| 20260504230126 | 79 | 144 | 1.0 | 7.0 | 0.00 | 0.00 | 0.00 | 49 | 1014.6 |
| 20260504225050 | 79 | 131 | 1.0 | 6.0 | 0.00 | 0.00 | 0.00 | 48 | 1014.5 |
| 20260504224048 | 79 | 142 | 0.0 | 6.0 | 0.00 | 0.00 | 0.00 | 48 | 1014.5 |
| 20260504223043 | 80 | 138 | 2.0 | 8.0 | 0.00 | 0.00 | 0.00 | 47 | 1014.4 |
| 20260504222116 | 80 | 130 | 3.0 | 7.0 | 0.00 | 0.00 | 0.00 | 47 | 1014.4 |
| 20260504221110 | 80 | 134 | 0.0 | 1.0 | 0.00 | 0.00 | 0.00 | 42 | 1014.4 |
| 20260504220113 | 81 | 134 | 0.0 | 4.0 | 0.00 | 0.00 | 0.00 | 43 | 1014.3 |
| 20260504215038 | 80 | 133 | 0.0 | 0.0 | 0.00 | 0.00 | 0.00 | 43 | 1014.2 |
| 20260504214111 | 81 | 133 | 0.0 | 1.0 | 0.00 | 0.00 | 0.00 | 44 | 1014.3 |
| 20260504213043 | 82 | 133 | 0.0 | 4.0 | 0.00 | 0.00 | 0.00 | 40 | 1014.3 |
| 20260504212053 | 82 | 133 | 0.0 | 1.0 | 0.00 | 0.00 | 0.00 | 43 | 1014.1 |
| 20260504211107 | 81 | 133 | 0.0 | 1.0 | 0.00 | 0.00 | 0.00 | 40 | 1014.3 |
| 20260504210109 | 82 | 133 | 0.0 | 2.0 | 0.00 | 0.00 | 0.00 | 45 | 1014.5 |
| 20260504205052 | 82 | 132 | 0.0 | 1.0 | 0.00 | 0.00 | 0.00 | 43 | 1014.6 |
| 20260504204050 | 82 | 134 | 0.0 | 1.0 | 0.00 | 0.00 | 0.00 | 47 | 1014.7 |
| 20260504203043 | 82 | 134 | 0.0 | 1.0 | 0.00 | 0.00 | 0.00 | 44 | 1014.8 |
| 20260504202037 | 82 | 134 | 0.0 | 2.0 | 0.00 | 0.00 | 0.00 | 45 | 1014.9 |
| 20260504201048 | 81 | 37 | 0.0 | 1.0 | 0.00 | 0.00 | 0.00 | 42 | 1015.1 |
| 20260504200134 | 82 | 37 | 1.0 | 2.0 | 0.00 | 0.00 | 0.00 | 44 | 1015.2 |
| 20260504195058 | 82 | 118 | 0.0 | 4.0 | 0.00 | 0.00 | 0.00 | 41 | 1015.3 |
| 20260504194053 | 82 | 139 | 0.0 | 1.0 | 0.00 | 0.00 | 0.00 | 44 | 1015.6 |
| 20260504193046 | 82 | 139 | 0.0 | 4.0 | 0.00 | 0.00 | 0.00 | 43 | 1015.8 |
| 20260504192040 | 82 | 139 | 0.0 | 2.0 | 0.00 | 0.00 | 0.00 | 43 | 1015.9 |
| 20260504191052 | 81 | 122 | 0.0 | 2.0 | 0.00 | 0.00 | 0.00 | 45 | 1016.1 |
| 20260504190120 | 81 | 100 | 0.0 | 5.0 | 0.00 | 0.00 | 0.00 | 45 | 1016.2 |
| 20260504185100 | 81 | 119 | 0.0 | 2.0 | 0.00 | 0.00 | 0.00 | 44 | 1016.4 |
| 20260504184053 | 80 | 144 | 0.0 | 1.0 | 0.00 | 0.00 | 0.00 | 46 | 1016.4 |
| 20260504183046 | 80 | 144 | 0.0 | 4.0 | 0.00 | 0.00 | 0.00 | 45 | 1016.6 |
| 20260504182041 | 80 | 155 | 0.0 | 1.0 | 0.00 | 0.00 | 0.00 | 43 | 1016.6 |
| 20260504181053 | 80 | 169 | 0.0 | 1.0 | 0.00 | 0.00 | 0.00 | 41 | 1016.8 |
| 20260504180137 | 79 | 169 | 0.0 | 1.0 | 0.00 | 0.00 | 0.00 | 45 | 1016.8 |
| 20260504175058 | 79 | 169 | 0.0 | 0.0 | 0.00 | 0.00 | 0.00 | 43 | 1017.1 |
| 20260504174049 | 78 | 169 | 0.0 | 0.0 | 0.00 | 0.00 | 0.00 | 45 | 1017.2 |